| time (UTC) | temp F | wind direction | speed MPH | gust MPH | rain 1hr in | rain 24hr in | rain mn in | humidity % | barometer mb |
| 20260502220034 | 50 | 108 | 0.0 | 1.0 | 0.00 | 0.33 | 0.33 | 89 | 1008.6 |
| 20260502215531 | 50 | 165 | 2.0 | 2.0 | 0.00 | 0.33 | 0.33 | 89 | 1008.8 |
| 20260502215028 | 50 | 57 | 0.0 | 1.0 | 0.00 | 0.33 | 0.33 | 89 | 1008.7 |
| 20260502214525 | 50 | 29 | 0.0 | 1.0 | 0.00 | 0.33 | 0.33 | 90 | 1008.7 |
| 20260502214023 | 51 | 311 | 2.0 | 3.0 | 0.00 | 0.33 | 0.33 | 90 | 1008.6 |
| 20260502213519 | 51 | 200 | 1.0 | 2.0 | 0.00 | 0.33 | 0.33 | 90 | 1008.6 |
| 20260502213017 | 51 | 168 | 1.0 | 2.0 | 0.00 | 0.33 | 0.33 | 90 | 1008.6 |
| 20260502212516 | 51 | 145 | 1.0 | 2.0 | 0.00 | 0.33 | 0.33 | 89 | 1008.5 |
| 20260502212013 | 51 | 170 | 2.0 | 3.0 | 0.00 | 0.33 | 0.33 | 89 | 1008.6 |
| 20260502211509 | 51 | 137 | 1.0 | 2.0 | 0.00 | 0.33 | 0.33 | 88 | 1008.5 |
| 20260502211006 | 51 | 127 | 0.0 | 2.0 | 0.00 | 0.33 | 0.33 | 89 | 1008.7 |
| 20260502210503 | 51 | 163 | 1.0 | 2.0 | 0.00 | 0.33 | 0.33 | 89 | 1008.4 |
| 20260502210000 | 50 | 161 | 0.0 | 0.0 | 0.00 | 0.33 | 0.33 | 89 | 1008.6 |
| 20260502205456 | 50 | 122 | 1.0 | 1.0 | 0.00 | 0.33 | 0.33 | 89 | 1008.5 |
| 20260502204953 | 50 | 166 | 0.0 | 0.0 | 0.00 | 0.33 | 0.33 | 91 | 1008.4 |
| 20260502204450 | 50 | 165 | 0.0 | 1.0 | 0.00 | 0.33 | 0.33 | 92 | 1008.6 |
| 20260502203948 | 50 | 142 | 0.0 | 1.0 | 0.00 | 0.33 | 0.33 | 92 | 1008.6 |
| 20260502203445 | 50 | 185 | 2.0 | 2.0 | 0.00 | 0.33 | 0.33 | 92 | 1008.4 |
| 20260502202941 | 49 | 132 | 2.0 | 2.0 | 0.00 | 0.33 | 0.33 | 92 | 1008.7 |
| 20260502202438 | 50 | 180 | 1.0 | 1.0 | 0.00 | 0.33 | 0.33 | 92 | 1008.7 |
| 20260502201936 | 49 | 127 | 0.0 | 2.0 | 0.07 | 0.33 | 0.33 | 91 | 1008.6 |
| 20260502201432 | 50 | 114 | 0.0 | 0.0 | 0.07 | 0.33 | 0.33 | 92 | 1008.8 |
| 20260502200929 | 50 | 164 | 0.0 | 1.0 | 0.05 | 0.32 | 0.32 | 92 | 1008.8 |
| 20260502200424 | 50 | 159 | 0.0 | 1.0 | 0.05 | 0.32 | 0.32 | 91 | 1009.0 |
| 20260502195923 | 49 | 299 | 1.0 | 1.0 | 0.00 | 0.31 | 0.31 | 91 | 1008.7 |
| 20260502195419 | 49 | 138 | 0.0 | 0.0 | 0.00 | 0.31 | 0.31 | 92 | 1008.7 |
| 20260502194916 | 49 | 147 | 0.0 | 2.0 | 0.00 | 0.31 | 0.31 | 91 | 1008.9 |
| 20260502194413 | 49 | 177 | 0.0 | 1.0 | 0.00 | 0.31 | 0.31 | 92 | 1009.0 |
| 20260502193909 | 49 | 117 | 2.0 | 2.0 | 0.07 | 0.31 | 0.31 | 91 | 1008.8 |
| 20260502193406 | 49 | 178 | 0.0 | 0.0 | 0.07 | 0.31 | 0.31 | 92 | 1009.1 |
| 20260502192901 | 49 | 122 | 0.0 | 0.0 | 0.05 | 0.30 | 0.30 | 92 | 1009.1 |
| 20260502192359 | 48 | 99 | 0.0 | 0.0 | 0.05 | 0.30 | 0.30 | 91 | 1009.1 |
| 20260502191855 | 48 | 140 | 0.0 | 1.0 | 0.00 | 0.29 | 0.29 | 92 | 1009.1 |
| 20260502191353 | 48 | 147 | 0.0 | 0.0 | 0.07 | 0.29 | 0.29 | 92 | 1009.2 |
| 20260502190851 | 48 | 238 | 0.0 | 0.0 | 0.07 | 0.29 | 0.29 | 92 | 1009.2 |
| 20260502190348 | 49 | 16 | 1.0 | 3.0 | 0.07 | 0.28 | 0.28 | 91 | 1009.2 |
| 20260502185844 | 49 | 110 | 0.0 | 1.0 | 0.07 | 0.28 | 0.28 | 93 | 1009.4 |
| 20260502185339 | 49 | 122 | 1.0 | 2.0 | 0.00 | 0.27 | 0.27 | 93 | 1009.3 |
| 20260502184837 | 49 | 159 | 1.0 | 2.0 | 0.05 | 0.27 | 0.27 | 93 | 1009.4 |
| 20260502184332 | 49 | 288 | 1.0 | 3.0 | 0.12 | 0.26 | 0.26 | 93 | 1009.5 |
| 20260502183829 | 49 | 183 | 1.0 | 2.0 | 0.24 | 0.26 | 0.26 | 92 | 1009.5 |
| 20260502183325 | 48 | 269 | 1.0 | 6.0 | 0.19 | 0.24 | 0.24 | 92 | 1009.4 |
| 20260502182820 | 49 | 268 | 1.0 | 4.0 | 0.12 | 0.22 | 0.22 | 92 | 1009.5 |
| 20260502182316 | 49 | 108 | 2.0 | 3.0 | 0.05 | 0.21 | 0.21 | 92 | 1009.6 |
| 20260502181813 | 49 | 309 | 2.0 | 6.0 | 0.12 | 0.20 | 0.20 | 91 | 1009.3 |
| 20260502181311 | 49 | 217 | 3.0 | 4.0 | 0.19 | 0.20 | 0.20 | 91 | 1009.5 |
| 20260502180810 | 49 | 271 | 2.0 | 3.0 | 0.14 | 0.18 | 0.18 | 90 | 1009.4 |
| 20260502180307 | 49 | 9 | 1.0 | 3.0 | 0.12 | 0.17 | 0.17 | 89 | 1009.7 |
| 20260502170231 | 53 | 178 | 6.0 | 7.0 | 0.00 | 0.10 | 0.10 | 72 | 1009.3 |
| 20260502164218 | 53 | 87 | 1.0 | 1.0 | 0.00 | 0.10 | 0.10 | 70 | 1009.3 |
| 20260502163713 | 53 | 143 | 0.0 | 0.0 | 0.00 | 0.10 | 0.10 | 69 | 1009.3 |
| 20260502163210 | 53 | 213 | 1.0 | 3.0 | 0.00 | 0.10 | 0.10 | 69 | 1009.5 |
| 20260502162708 | 54 | 104 | 2.0 | 4.0 | 0.00 | 0.10 | 0.10 | 67 | 1009.5 |
| 20260502162204 | 54 | 94 | 1.0 | 3.0 | 0.00 | 0.10 | 0.10 | 67 | 1009.6 |
| 20260502161701 | 54 | 304 | 2.0 | 3.0 | 0.00 | 0.10 | 0.10 | 68 | 1009.7 |
| 20260502161158 | 54 | 61 | 3.0 | 6.0 | 0.00 | 0.10 | 0.10 | 67 | 1009.6 |
| 20260502160656 | 54 | 136 | 1.0 | 3.0 | 0.00 | 0.10 | 0.10 | 67 | 1009.8 |
| 20260502160155 | 54 | 223 | 2.0 | 3.0 | 0.00 | 0.10 | 0.10 | 67 | 1009.9 |
| 20260502152109 | 52 | 148 | 2.0 | 3.0 | 0.00 | 0.10 | 0.10 | 71 | 1010.2 |
| 20260502151606 | 52 | 204 | 1.0 | 2.0 | 0.00 | 0.10 | 0.10 | 71 | 1010.3 |
| 20260502151103 | 52 | 178 | 1.0 | 6.0 | 0.00 | 0.10 | 0.10 | 69 | 1010.3 |
| 20260502150600 | 52 | 291 | 2.0 | 2.0 | 0.00 | 0.10 | 0.10 | 71 | 1010.2 |
| 20260502130445 | 47 | 139 | 0.0 | 0.0 | 0.00 | 0.10 | 0.10 | 89 | 1011.1 |
| 20260502123428 | 46 | 92 | 0.0 | 0.0 | 0.00 | 0.10 | 0.10 | 91 | 1011.2 |
| 20260502122925 | 45 | 93 | 0.0 | 0.0 | 0.00 | 0.10 | 0.10 | 91 | 1011.3 |
| 20260502122421 | 45 | 141 | 0.0 | 0.0 | 0.00 | 0.10 | 0.10 | 91 | 1011.1 |
| 20260502121920 | 45 | 137 | 0.0 | 0.0 | 0.00 | 0.10 | 0.10 | 92 | 1011.3 |
| 20260502121416 | 45 | 139 | 0.0 | 0.0 | 0.05 | 0.10 | 0.10 | 92 | 1011.3 |
| 20260502120914 | 44 | 129 | 0.0 | 0.0 | 0.12 | 0.10 | 0.10 | 92 | 1011.1 |
| 20260502120410 | 44 | 141 | 0.0 | 0.0 | 0.12 | 0.09 | 0.09 | 91 | 1011.3 |
| 20260502115907 | 44 | 158 | 0.0 | 0.0 | 0.17 | 0.08 | 0.08 | 91 | 1011.3 |
| 20260502115404 | 44 | 131 | 0.0 | 0.0 | 0.12 | 0.07 | 0.07 | 91 | 1011.4 |
| 20260502114900 | 44 | 144 | 0.0 | 1.0 | 0.07 | 0.05 | 0.05 | 90 | 1011.4 |
| 20260502114357 | 44 | 155 | 1.0 | 1.0 | 0.07 | 0.05 | 0.05 | 90 | 1011.3 |
| 20260502113854 | 44 | 158 | 0.0 | 1.0 | 0.00 | 0.04 | 0.04 | 89 | 1011.0 |
| 20260502113352 | 44 | 108 | 0.0 | 0.0 | 0.00 | 0.04 | 0.04 | 89 | 1011.0 |
| 20260502112850 | 44 | 325 | 1.0 | 2.0 | 0.00 | 0.04 | 0.04 | 89 | 1010.7 |
| 20260502112347 | 44 | 112 | 0.0 | 2.0 | 0.00 | 0.04 | 0.04 | 89 | 1010.6 |
| 20260502111845 | 44 | 119 | 0.0 | 1.0 | 0.00 | 0.04 | 0.04 | 90 | 1010.3 |
| 20260502111342 | 44 | 82 | 2.0 | 3.0 | 0.00 | 0.04 | 0.04 | 89 | 1010.2 |
| 20260502110840 | 44 | 5 | 1.0 | 1.0 | 0.00 | 0.04 | 0.04 | 90 | 1010.3 |
| 20260502110337 | 44 | 118 | 0.0 | 4.0 | 0.00 | 0.04 | 0.04 | 89 | 1010.4 |
| 20260502105834 | 44 | 346 | 2.0 | 2.0 | 0.00 | 0.04 | 0.04 | 90 | 1010.3 |
| 20260502105331 | 43 | 72 | 0.0 | 1.0 | 0.00 | 0.04 | 0.04 | 90 | 1010.1 |
| 20260502104829 | 43 | 81 | 1.0 | 1.0 | 0.00 | 0.04 | 0.04 | 89 | 1010.2 |
| 20260502104326 | 43 | 79 | 0.0 | 2.0 | 0.00 | 0.04 | 0.04 | 89 | 1010.3 |
| 20260502103823 | 43 | 131 | 0.0 | 0.0 | 0.00 | 0.04 | 0.04 | 89 | 1010.4 |
| 20260502103321 | 43 | 112 | 0.0 | 2.0 | 0.00 | 0.04 | 0.04 | 88 | 1010.3 |
| 20260502102818 | 43 | 105 | 0.0 | 0.0 | 0.07 | 0.04 | 0.04 | 87 | 1010.7 |
| 20260502102314 | 43 | 32 | 1.0 | 3.0 | 0.00 | 0.03 | 0.03 | 86 | 1010.5 |
| 20260502101812 | 43 | 352 | 2.0 | 2.0 | 0.05 | 0.03 | 0.03 | 85 | 1010.5 |
| 20260502101310 | 44 | 89 | 0.0 | 2.0 | 0.12 | 0.03 | 0.03 | 84 | 1010.7 |
| 20260502100808 | 44 | 137 | 0.0 | 3.0 | 0.07 | 0.02 | 0.02 | 82 | 1010.6 |
| 20260502100307 | 44 | 144 | 0.0 | 1.0 | 0.00 | 0.01 | 0.01 | 81 | 1010.3 |
| 20260502091241 | 45 | 153 | 0.0 | 0.0 | 0.00 | 0.00 | 0.00 | 75 | 1009.8 |
| 20260502090738 | 45 | 356 | 1.0 | 1.0 | 0.00 | 0.00 | 0.00 | 74 | 1010.1 |
| 20260502090234 | 45 | 76 | 0.0 | 2.0 | 0.00 | 0.00 | 0.00 | 73 | 1010.0 |
| 20260502071135 | 45 | 112 | 0.0 | 1.0 | 0.00 | 0.00 | 0.00 | 71 | 1010.4 |
| 20260502070633 | 46 | 86 | 0.0 | 1.0 | 0.00 | 0.00 | 0.00 | 69 | 1010.4 |
| 20260502070131 | 46 | 314 | 2.0 | 2.0 | 0.00 | 0.00 | 0.00 | 68 | 1010.7 |
| 20260502065629 | 46 | 71 | 1.0 | 2.0 | 0.00 | 0.00 | 0.00 | 67 | 1010.6 |
| 20260502065126 | 46 | 19 | 2.0 | 2.0 | 0.00 | 0.00 | 0.00 | 66 | 1010.7 |
| 20260502064625 | 45 | 311 | 3.0 | 3.0 | 0.00 | 0.00 | 0.00 | 69 | 1010.6 |
| 20260502064122 | 45 | 250 | 1.0 | 1.0 | 0.00 | 0.00 | 0.00 | 70 | 1010.3 |
| 20260502063620 | 45 | 85 | 0.0 | 1.0 | 0.00 | 0.00 | 0.00 | 69 | 1010.5 |
| 20260502063117 | 45 | 128 | 0.0 | 1.0 | 0.00 | 0.00 | 0.00 | 70 | 1010.7 |
| 20260502062614 | 45 | 301 | 2.0 | 3.0 | 0.00 | 0.00 | 0.00 | 71 | 1010.6 |
| 20260502062112 | 45 | 112 | 0.0 | 0.0 | 0.00 | 0.00 | 0.00 | 72 | 1010.4 |
| 20260502061610 | 46 | 148 | 1.0 | 4.0 | 0.00 | 0.00 | 0.00 | 71 | 1010.8 |
| 20260502061107 | 46 | 58 | 2.0 | 3.0 | 0.00 | 0.00 | 0.00 | 70 | 1010.5 |
| 20260502060607 | 46 | 153 | 0.0 | 0.0 | 0.00 | 0.00 | 0.00 | 69 | 1010.8 |
| 20260502060104 | 46 | 79 | 0.0 | 2.0 | 0.00 | 0.00 | 0.00 | 68 | 1010.7 |
| 20260502055602 | 46 | 119 | 0.0 | 0.0 | 0.00 | 0.00 | 0.00 | 70 | 1010.7 |
| 20260502055100 | 46 | 158 | 0.0 | 0.0 | 0.00 | 0.00 | 0.00 | 70 | 1010.8 |
| 20260502054558 | 45 | 172 | 0.0 | 0.0 | 0.00 | 0.00 | 0.00 | 70 | 1010.4 |
| 20260502054055 | 45 | 148 | 0.0 | 0.0 | 0.00 | 0.00 | 0.00 | 69 | 1010.6 |
| 20260502053552 | 45 | 118 | 0.0 | 0.0 | 0.00 | 0.00 | 0.00 | 68 | 1010.1 |
| 20260502053050 | 45 | 118 | 0.0 | 0.0 | 0.00 | 0.00 | 0.00 | 68 | 1010.3 |
| 20260502052548 | 45 | 117 | 0.0 | 0.0 | 0.00 | 0.00 | 0.00 | 68 | 1010.2 |
| 20260502052046 | 45 | 129 | 0.0 | 0.0 | 0.00 | 0.00 | 0.00 | 69 | 1010.2 |
| 20260502051544 | 46 | 162 | 0.0 | 0.0 | 0.00 | 0.00 | 0.00 | 69 | 1010.2 |
| 20260502051041 | 46 | 127 | 0.0 | 0.0 | 0.00 | 0.00 | 0.00 | 67 | 1010.2 |
| 20260502050537 | 46 | 101 | 0.0 | 0.0 | 0.00 | 0.00 | 0.00 | 67 | 1010.2 |
| 20260502050034 | 45 | 117 | 0.0 | 0.0 | 0.00 | 0.00 | 0.00 | 68 | 1010.4 |
| 20260502045531 | 45 | 137 | 0.0 | 0.0 | 0.00 | 0.00 | 0.00 | 66 | 1010.5 |
| 20260502045028 | 45 | 137 | 0.0 | 0.0 | 0.00 | 0.00 | 0.00 | 67 | 1010.1 |
| 20260502044524 | 46 | 138 | 0.0 | 0.0 | 0.00 | 0.00 | 0.00 | 67 | 1010.3 |
| 20260502044021 | 46 | 138 | 0.0 | 0.0 | 0.00 | 0.00 | 0.00 | 67 | 1010.4 |
| 20260502043519 | 45 | 125 | 0.0 | 0.0 | 0.00 | 0.00 | 0.00 | 67 | 1010.3 |
| 20260502043015 | 46 | 125 | 0.0 | 0.0 | 0.00 | 0.00 | 0.00 | 68 | 1010.2 |
| 20260502042510 | 45 | 144 | 0.0 | 0.0 | 0.00 | 0.00 | 0.00 | 68 | 1010.5 |
| 20260502042008 | 45 | 150 | 0.0 | 0.0 | 0.00 | 0.00 | 0.00 | 68 | 1010.2 |
| 20260502041506 | 45 | 134 | 0.0 | 0.0 | 0.00 | 0.00 | 0.00 | 67 | 1010.2 |
| 20260502041002 | 45 | 134 | 0.0 | 0.0 | 0.00 | 0.00 | 0.00 | 67 | 1010.1 |
| 20260502040458 | 45 | 147 | 0.0 | 0.0 | 0.00 | 0.00 | 0.00 | 66 | 1010.2 |
| 20260502035955 | 45 | 123 | 0.0 | 0.0 | 0.00 | 0.00 | 0.00 | 67 | 1010.3 |
| 20260502035451 | 45 | 122 | 0.0 | 0.0 | 0.00 | 0.00 | 0.00 | 65 | 1010.2 |
| 20260502034949 | 45 | 114 | 0.0 | 0.0 | 0.00 | 0.00 | 0.00 | 65 | 1010.1 |
| 20260502034447 | 45 | 133 | 0.0 | 0.0 | 0.00 | 0.00 | 0.00 | 64 | 1009.9 |
| 20260502033945 | 45 | 137 | 0.0 | 0.0 | 0.00 | 0.00 | 0.00 | 65 | 1010.4 |
| 20260502033443 | 45 | 137 | 0.0 | 0.0 | 0.00 | 0.00 | 0.00 | 65 | 1010.3 |
| 20260502032939 | 45 | 137 | 0.0 | 0.0 | 0.00 | 0.00 | 0.00 | 64 | 1010.2 |
| 20260502032436 | 45 | 137 | 0.0 | 0.0 | 0.00 | 0.00 | 0.00 | 64 | 1010.2 |
| 20260502031933 | 45 | 140 | 0.0 | 0.0 | 0.00 | 0.00 | 0.00 | 65 | 1010.1 |
| 20260502031431 | 45 | 147 | 0.0 | 0.0 | 0.00 | 0.00 | 0.00 | 61 | 1009.9 |
| 20260502030929 | 45 | 150 | 0.0 | 0.0 | 0.00 | 0.00 | 0.00 | 63 | 1010.1 |
| 20260502030427 | 45 | 140 | 0.0 | 0.0 | 0.00 | 0.00 | 0.00 | 66 | 1010.1 |
| 20260502025925 | 44 | 136 | 0.0 | 0.0 | 0.00 | 0.00 | 0.00 | 65 | 1009.9 |
| 20260502025421 | 44 | 143 | 0.0 | 0.0 | 0.00 | 0.00 | 0.00 | 65 | 1009.9 |
| 20260502024920 | 44 | 146 | 0.0 | 0.0 | 0.00 | 0.00 | 0.00 | 64 | 1010.0 |
| 20260502024418 | 44 | 135 | 0.0 | 0.0 | 0.00 | 0.00 | 0.00 | 65 | 1010.0 |
| 20260502023915 | 44 | 120 | 0.0 | 0.0 | 0.00 | 0.00 | 0.00 | 63 | 1010.0 |
| 20260502023412 | 44 | 116 | 0.0 | 0.0 | 0.00 | 0.00 | 0.00 | 65 | 1009.9 |
| 20260502022910 | 44 | 124 | 0.0 | 0.0 | 0.00 | 0.00 | 0.00 | 65 | 1009.9 |
| 20260502022406 | 44 | 124 | 0.0 | 0.0 | 0.00 | 0.00 | 0.00 | 63 | 1010.0 |
| 20260502021903 | 44 | 126 | 0.0 | 0.0 | 0.00 | 0.00 | 0.00 | 63 | 1010.0 |
| 20260502021400 | 44 | 151 | 0.0 | 0.0 | 0.00 | 0.00 | 0.00 | 63 | 1009.9 |
| 20260502020857 | 44 | 109 | 0.0 | 0.0 | 0.00 | 0.00 | 0.00 | 63 | 1009.9 |
| 20260502020355 | 45 | 108 | 0.0 | 0.0 | 0.00 | 0.00 | 0.00 | 63 | 1009.9 |
| 20260502015852 | 45 | 108 | 0.0 | 0.0 | 0.00 | 0.00 | 0.00 | 63 | 1009.9 |
| 20260502015349 | 45 | 108 | 0.0 | 0.0 | 0.00 | 0.00 | 0.00 | 60 | 1009.9 |
| 20260502014846 | 45 | 112 | 0.0 | 0.0 | 0.00 | 0.00 | 0.00 | 61 | 1010.0 |
| 20260502014343 | 46 | 114 | 0.0 | 0.0 | 0.00 | 0.00 | 0.00 | 60 | 1010.0 |
| 20260502013839 | 46 | 99 | 0.0 | 0.0 | 0.00 | 0.00 | 0.00 | 60 | 1010.0 |
| 20260502013335 | 47 | 106 | 0.0 | 0.0 | 0.00 | 0.00 | 0.00 | 58 | 1009.8 |
| 20260502012831 | 47 | 103 | 0.0 | 0.0 | 0.00 | 0.00 | 0.00 | 55 | 1009.9 |
| 20260502012330 | 47 | 84 | 0.0 | 0.0 | 0.00 | 0.00 | 0.00 | 57 | 1009.8 |
| 20260502011827 | 47 | 106 | 0.0 | 0.0 | 0.00 | 0.00 | 0.00 | 56 | 1009.9 |
| 20260502011323 | 48 | 103 | 0.0 | 0.0 | 0.00 | 0.00 | 0.00 | 55 | 1009.9 |
| 20260502010820 | 48 | 102 | 0.0 | 0.0 | 0.00 | 0.00 | 0.00 | 55 | 1009.8 |
| 20260502010316 | 48 | 100 | 0.0 | 0.0 | 0.00 | 0.00 | 0.00 | 54 | 1009.7 |
| 20260502005814 | 49 | 110 | 0.0 | 0.0 | 0.00 | 0.00 | 0.00 | 53 | 1009.6 |
| 20260502005312 | 49 | 99 | 0.0 | 0.0 | 0.00 | 0.00 | 0.00 | 53 | 1009.4 |
| 20260502004808 | 49 | 101 | 0.0 | 0.0 | 0.00 | 0.00 | 0.00 | 52 | 1009.6 |
| 20260502004304 | 49 | 90 | 0.0 | 0.0 | 0.00 | 0.00 | 0.00 | 52 | 1009.5 |
| 20260502003802 | 50 | 102 | 0.0 | 0.0 | 0.00 | 0.00 | 0.00 | 53 | 1009.5 |
| 20260502003259 | 50 | 106 | 0.0 | 0.0 | 0.00 | 0.00 | 0.00 | 52 | 1009.3 |
| 20260502002754 | 50 | 93 | 0.0 | 0.0 | 0.00 | 0.00 | 0.00 | 52 | 1009.4 |
| 20260502002253 | 51 | 102 | 0.0 | 0.0 | 0.00 | 0.00 | 0.00 | 50 | 1009.2 |
| 20260502001749 | 51 | 107 | 0.0 | 0.0 | 0.00 | 0.00 | 0.00 | 49 | 1009.3 |
| 20260502001248 | 51 | 107 | 0.0 | 0.0 | 0.00 | 0.00 | 0.00 | 49 | 1009.1 |
| 20260502000745 | 52 | 134 | 0.0 | 0.0 | 0.00 | 0.00 | 0.00 | 49 | 1009.0 |
| 20260502000243 | 53 | 101 | 0.0 | 0.0 | 0.00 | 0.00 | 0.00 | 46 | 1009.0 |
| 20260501235738 | 54 | 157 | 0.0 | 1.0 | 0.00 | 0.00 | 0.00 | 45 | 1008.8 |
| 20260501235234 | 54 | 131 | 0.0 | 0.0 | 0.00 | 0.00 | 0.00 | 44 | 1008.7 |
| 20260501234730 | 55 | 151 | 0.0 | 1.0 | 0.00 | 0.00 | 0.00 | 40 | 1008.6 |
| 20260501234227 | 56 | 131 | 0.0 | 1.0 | 0.00 | 0.00 | 0.00 | 38 | 1008.5 |
| 20260501233725 | 56 | 82 | 0.0 | 0.0 | 0.00 | 0.00 | 0.00 | 35 | 1008.5 |
| 20260501233223 | 57 | 82 | 0.0 | 0.0 | 0.00 | 0.00 | 0.00 | 35 | 1008.3 |
| 20260501232718 | 58 | 36 | 1.0 | 2.0 | 0.00 | 0.00 | 0.00 | 33 | 1008.4 |
| 20260501232216 | 58 | 230 | 1.0 | 1.0 | 0.00 | 0.00 | 0.00 | 33 | 1008.4 |
| 20260501231713 | 59 | 281 | 0.0 | 4.0 | 0.00 | 0.00 | 0.00 | 31 | 1008.3 |
| 20260501231211 | 60 | 291 | 1.0 | 1.0 | 0.00 | 0.00 | 0.00 | 31 | 1008.3 |
| 20260501230709 | 60 | 314 | 2.0 | 3.0 | 0.00 | 0.00 | 0.00 | 30 | 1008.1 |
| 20260501230208 | 60 | 11 | 2.0 | 3.0 | 0.00 | 0.00 | 0.00 | 30 | 1008.0 |
| 20260501230011 | 60 | 307 | 0.0 | 1.0 | 0.00 | 0.03 | 0.01 | 34 | 1007.7 |
| 20260501225705 | 60 | 317 | 4.0 | 4.0 | 0.00 | 0.00 | 0.00 | 30 | 1008.1 |
| 20260501225201 | 60 | 261 | 2.0 | 3.0 | 0.00 | 0.00 | 0.00 | 29 | 1008.3 |
| 20260501224657 | 60 | 246 | 2.0 | 4.0 | 0.00 | 0.00 | 0.00 | 30 | 1008.1 |
| 20260501224155 | 61 | 164 | 1.0 | 6.0 | 0.00 | 0.00 | 0.00 | 30 | 1008.0 |
| 20260501224011 | 60 | 232 | 0.0 | 1.0 | 0.00 | 0.04 | 0.01 | 33 | 1007.6 |
| 20260501223651 | 60 | 270 | 2.0 | 2.0 | 0.00 | 0.00 | 0.00 | 29 | 1008.0 |
| 20260501223148 | 61 | 31 | 3.0 | 7.0 | 0.00 | 0.00 | 0.00 | 29 | 1008.1 |
| 20260501222644 | 61 | 281 | 5.0 | 7.0 | 0.00 | 0.00 | 0.00 | 29 | 1007.9 |
| 20260501222141 | 61 | 303 | 5.0 | 13.0 | 0.00 | 0.00 | 0.00 | 29 | 1007.9 |
| 20260501222010 | 61 | 294 | 2.0 | 1.0 | 0.00 | 0.04 | 0.01 | 33 | 1007.4 |
| 20260501221638 | 61 | 237 | 3.0 | 6.0 | 0.00 | 0.00 | 0.00 | 28 | 1008.0 |
| 20260501221137 | 62 | 267 | 3.0 | 6.0 | 0.00 | 0.00 | 0.00 | 28 | 1007.7 |
| 20260501221011 | 0 | 0.0 | 0.0 | 0.31 | 0.00 | 0.00 | |||
| 20260501220633 | 61 | 248 | 4.0 | 8.0 | 0.00 | 0.00 | 0.00 | 28 | 1007.9 |